DW2485 Weather Reports


time (UTC)temp
F
wind
direction
speed
knots
gust
knots
rain 1hr
in
rain 24hr
in
rain mn
in
humidity
%
barometer
mb
20260903202005 93 221 5.2 7.8 0.00 0.00 0.00 57 1013.4
20260903201505 95 205 4.3 7.8 0.00 0.00 0.00 56 1013.4
20260903201005 95 184 5.2 10.4 0.00 0.00 0.00 55 1013.3
20260903200505 96 173 1.7 4.3 0.00 0.00 0.00 57 1013.3
20260903200005 95 211 2.6 8.7 0.00 0.00 0.00 56 1013.3
20260903195505 95 218 4.3 8.7 0.00 0.00 0.00 55 1013.3
20260903194005 95 179 4.3 7.0 0.00 0.00 0.00 56 1013.7
20260903193005 95 217 5.2 8.7 0.00 0.00 0.00 54 1013.5
20260903192005 94 180 7.0 11.3 0.00 0.00 0.00 55 1013.7
20260903191504 94 185 4.3 10.4 0.00 0.00 0.00 56 1013.9
20260903190504 94 171 4.3 7.0 0.00 0.00 0.00 57 1014.0
20260903190005 94 192 6.1 8.7 0.00 0.00 0.00 57 1014.0
20260903185005 94 181 5.2 7.0 0.00 0.00 0.00 59 1013.9
20260903184505 94 170 6.1 8.7 0.00 0.00 0.00 58 1013.8
20260903184005 94 141 4.3 7.0 0.00 0.00 0.00 59 1013.9
20260903183006 94 191 3.5 6.1 0.00 0.00 0.00 60 1014.0
20260903181505 90 214 0.9 1.7 0.00 0.00 0.00 62 1014.2
20260903180004 92 173 2.6 5.2 0.00 0.00 0.00 64 1014.3
20260903174505 88 158 2.6 5.2 0.00 0.00 0.00 68 1014.6
20260903172504 89 161 2.6 4.3 0.00 0.00 0.00 64 1014.7
20260903172005 89 123 2.6 5.2 0.00 0.00 0.00 64 1014.6
20260903170505 87 139 2.6 5.2 0.00 0.00 0.00 67 1014.6
20260903165004 88 154 4.3 6.1 0.00 0.00 0.00 67 1014.8
20260903164004 89 174 2.6 4.3 0.00 0.00 0.00 65 1014.8
20260903163005 89 192 4.3 7.0 0.00 0.00 0.00 68 1014.9
20260903162504 89 182 1.7 4.3 0.00 0.00 0.00 66 1014.9
20260903155505 86 122 2.6 5.2 0.00 0.00 0.00 71 1015.0
20260903155004 85 109 2.6 6.1 0.00 0.00 0.00 68 1015.1
20260903154005 87 74 2.6 5.2 0.00 0.00 0.00 66 1014.9
20260903153505 87 76 4.3 6.1 0.00 0.00 0.00 66 1015.0
20260903152504 86 82 2.6 2.6 0.00 0.00 0.00 68 1014.9
20260903152004 86 2 2.6 5.2 0.00 0.00 0.00 65 1014.9
20260903151504 86 19 2.6 4.3 0.00 0.00 0.00 69 1014.9
20260903150005 86 58 1.7 4.3 0.00 0.00 0.00 72 1014.9
20260903143505 84 329 2.6 4.3 0.00 0.00 0.00 74 1014.8
20260903142004 83 3 1.7 2.6 0.00 0.00 0.00 76 1014.9
20260903140004 80 355 0.0 1.7 0.00 0.00 0.00 81 1014.9
20260903135505 79 355 0.0 1.7 0.00 0.00 0.00 82 1015.0
20260903135005 79 355 0.0 1.7 0.00 0.00 0.00 82 1015.1
20260903134504 79 19 0.9 1.7 0.00 0.00 0.00 83 1015.1
20260903132504 76 311 4.3 8.7 0.00 0.00 0.00 88 1015.6
20260903132005 76 316 4.3 10.4 0.00 0.00 0.00 87 1015.6
20260903131005 76 279 4.3 17.4 0.00 0.00 0.00 87 1015.1
20260903130505 76 333 11.3 17.4 0.00 0.00 0.00 88 1015.6
20260903125506 75 169 0.9 1.7 0.00 0.00 0.00 89 1014.6
20260903124005 74 140 0.9 1.7 0.00 0.00 0.00 91 1014.5
20260903123004 73 124 1.7 1.7 0.00 0.00 0.00 92 1014.4
20260903121004 72 111 1.7 1.7 0.00 0.00 0.00 93 1014.4
20260903120504 72 110 1.7 1.7 0.00 0.00 0.00 94 1014.3
20260903120004 72 111 1.7 1.7 0.00 0.00 0.00 94 1014.3
20260903115504 72 111 0.9 1.7 0.00 0.00 0.00 94 1014.2
20260903114004 71 117 2.6 2.6 0.00 0.00 0.00 93 1014.0
20260903113005 71 122 1.7 2.6 0.00 0.00 0.00 93 1013.9
20260903112504 72 122 1.7 1.7 0.00 0.00 0.00 93 1013.8
20260903112004 71 124 1.7 2.6 0.00 0.00 0.00 93 1013.8
20260903111504 71 128 1.7 1.7 0.00 0.00 0.00 93 1013.8
20260903111004 72 128 0.9 1.7 0.00 0.00 0.00 93 1013.7
20260903105504 72 128 1.7 1.7 0.00 0.00 0.00 93 1013.8
20260903104504 72 128 1.7 1.7 0.00 0.00 0.00 92 1013.7
20260903104005 72 128 1.7 2.6 0.00 0.00 0.00 93 1013.7
20260903102504 72 128 1.7 1.7 0.00 0.00 0.00 93 1013.7
20260903101504 72 121 1.7 1.7 0.00 0.00 0.00 92 1013.9
20260903101004 73 132 1.7 2.6 0.00 0.00 0.00 92 1013.9
20260903100004 73 140 1.7 2.6 0.00 0.00 0.00 93 1013.9
20260903095504 72 138 1.7 2.6 0.00 0.00 0.00 93 1013.9
20260903092004 73 121 1.7 1.7 0.00 0.00 0.00 92 1013.9
20260903091004 73 132 1.7 2.6 0.00 0.00 0.00 92 1014.0
20260903085504 73 138 1.7 2.6 0.00 0.00 0.00 92 1014.0
20260903085005 73 134 1.7 2.6 0.00 0.00 0.00 93 1014.1
20260903084504 73 134 1.7 2.6 0.00 0.00 0.00 93 1014.0
20260903084004 73 125 1.7 2.6 0.00 0.00 0.00 93 1014.0
20260903083505 73 121 1.7 2.6 0.00 0.00 0.00 93 1013.8
20260903081504 73 114 1.7 2.6 0.00 0.00 0.00 93 1013.8
20260903081004 73 123 1.7 1.7 0.00 0.00 0.00 92 1013.8
20260903080504 74 123 0.9 1.7 0.00 0.00 0.00 92 1013.8
20260903074504 74 108 2.6 2.6 0.00 0.00 0.00 92 1013.8
20260903074004 74 114 2.6 2.6 0.00 0.00 0.00 92 1013.6
20260903072504 74 120 1.7 2.6 0.00 0.00 0.00 92 1013.7
20260903072004 74 127 2.6 2.6 0.00 0.00 0.00 92 1013.7
20260903070504 74 132 1.7 2.6 0.00 0.00 0.00 92 1013.9
20260903065004 74 129 1.7 2.6 0.00 0.00 0.00 92 1013.9
20260903064004 74 121 0.9 1.7 0.00 0.00 0.00 93 1013.9
20260903063004 74 121 1.7 1.7 0.00 0.00 0.00 92 1014.0
20260903062504 75 121 1.7 2.6 0.00 0.00 0.00 92 1014.0
20260903061504 75 127 1.7 2.6 0.00 0.00 0.00 92 1014.1
20260903060503 75 128 1.7 1.7 0.00 0.00 0.00 90 1014.1
20260903055004 76 128 2.6 2.6 0.00 0.00 0.00 90 1014.0
20260903053504 77 118 1.7 2.6 0.00 0.00 0.00 89 1014.0
20260903051503 77 128 2.6 2.6 0.00 0.00 0.00 88 1013.9
20260903050504 77 126 1.7 2.6 0.00 0.00 0.00 88 1013.9
20260903045003 78 121 1.7 2.6 0.00 0.00 0.00 88 1013.9
20260903043504 78 95 2.6 2.6 0.00 0.00 0.00 88 1013.9
20260903043006 78 91 2.6 2.6 0.00 0.00 0.00 88 1013.9
20260903042006 78 99 2.6 4.3 0.00 0.00 0.00 87 1013.8
20260903041506 78 108 1.7 2.6 0.00 0.00 0.00 87 1013.8
20260903041006 78 98 2.6 2.6 0.00 0.00 0.00 87 1013.9
20260903040008 78 104 3.5 5.2 0.00 0.00 0.00 87 1013.9
20260903035506 78 95 3.5 5.2 0.00 0.00 0.00 87 1013.9
20260903035006 78 96 2.6 2.6 0.00 0.00 0.00 87 1014.0
20260903034006 79 114 1.7 2.6 0.00 0.00 0.00 84 1013.9
20260903031505 81 157 2.6 5.2 0.00 0.00 0.00 81 1013.9
20260903031005 81 172 5.2 7.8 0.00 0.00 0.00 82 1013.9
20260903025506 80 342 0.9 1.7 0.00 0.00 0.00 85 1014.0
20260903025006 80 355 1.7 1.7 0.00 0.00 0.00 85 1014.0
20260903024505 80 355 1.7 2.6 0.00 0.00 0.00 85 1014.1
20260903024005 80 353 2.6 2.6 0.00 0.00 0.00 85 1014.2
20260903022506 81 313 1.7 2.6 0.00 0.00 0.00 84 1013.9
20260903022006 82 309 0.9 1.7 0.00 0.00 0.00 82 1013.9
20260903021506 82 254 0.9 2.6 0.00 0.00 0.00 81 1013.8
20260903020506 83 201 3.5 6.1 0.00 0.00 0.00 80 1013.5
20260903012506 82 173 4.3 7.8 0.00 0.00 0.00 84 1012.8
20260903012006 82 172 2.6 4.3 0.00 0.00 0.00 85 1012.8
20260903011506 82 173 2.6 6.1 0.00 0.00 0.00 85 1012.7
20260903011006 82 174 2.6 4.3 0.00 0.00 0.00 85 1012.7
20260903010005 82 160 3.5 4.3 0.00 0.00 0.00 85 1012.5
20260903003506 83 171 0.9 1.7 0.00 0.00 0.00 85 1013.0
20260903003005 83 171 1.7 2.6 0.00 0.00 0.00 86 1013.1
20260903002006 83 158 4.3 5.2 0.00 0.00 0.00 84 1012.9
20260903001505 84 155 2.6 2.6 0.00 0.00 0.00 83 1012.9
20260903001005 84 196 1.7 2.6 0.00 0.00 0.00 82 1013.1
20260902235005 85 202 1.7 2.6 0.00 0.00 0.00 82 1013.3
20260902233505 86 186 1.7 2.6 0.00 0.00 0.00 78 1013.3
20260902233006 87 247 1.7 1.7 0.00 0.00 0.00 75 1013.4
20260902231005 88 268 0.9 1.7 0.00 0.00 0.00 73 1013.7
20260902230005 88 268 0.9 1.7 0.00 0.00 0.00 72 1013.5
20260902225505 88 268 0.9 1.7 0.00 0.00 0.00 71 1013.6
20260902225006 88 250 0.9 2.6 0.00 0.00 0.00 71 1013.6
20260902224505 88 247 1.7 2.6 0.00 0.00 0.00 69 1013.5
20260902224005 89 245 1.7 2.6 0.00 0.00 0.00 69 1013.4
20260902222505 89 202 3.5 6.1 0.00 0.00 0.00 67 1013.0
20260902222006 90 180 3.5 7.0 0.00 0.00 0.00 66 1013.0
20260902221005 90 200 1.7 2.6 0.00 0.00 0.00 65 1013.4
20260902215505 90 223 1.7 2.6 0.00 0.00 0.00 63 1013.5
20260902215005 90 232 1.7 2.6 0.00 0.00 0.00 60 1013.5
20260902211505 94 288 2.6 6.1 0.00 0.00 0.00 55 1013.7
20260902210005 96 292 3.5 7.0 0.00 0.00 0.00 52 1013.7
20260902205005 97 301 3.5 6.1 0.00 0.00 0.00 52 1013.9
20260902204504 96 311 4.3 7.0 0.00 0.00 0.00 52 1013.9
20260902203006 94 276 3.5 7.0 0.00 0.00 0.00 54 1013.9